Regional Weather Roundup
Issued by NWS Binghamton, NY

Current Version | Previous Version | Text Only | Print | Product List | Glossary On
Versions: 1 2 3 4 5 6 7 8 9 10 11 12 13 14 15 16 17 18 19 20 21 22 23 24 25 26 27
000
ASUS41 KBGM 022110
RWRBGM

REGIONAL WEATHER ROUNDUP
NATIONAL WEATHER SERVICE BINGHAMTON NY
400 PM EST FRI DEC 02 2016

Note: "fair" indicates few or no clouds below 12,000 feet with no
significant weather and/or obstructions to visibility.

* = Station(s) that does not report precipitation, such as rain,
snow, etc, also no thunder or fog.

NYZ009-015>018-022>025-036-037-044>046-055>057-062-022200
...Central New York...

CITY           SKY/WX    TMP DP  RH WIND       PRES   REMARKS
Binghamton     FLURRIES  34  32  92 W15       29.84R WCI  24
Cortland       CLOUDY    37  32  81 W7G18     29.84R WCI  32
Dansville      CLOUDY    41  28  60 W8G18     29.91R
Elmira         MOCLDY    41  29  62 W13G22    29.88R
Seneca Falls   CLOUDY    43  30  61 W18       29.87S
Ithaca         CLOUDY    39  30  70 W16G24    29.87R WCI  30
Hamilton       CLOUDY    39  30  70 W9        29.82R WCI  33
Monticello     CLOUDY    41  28  60 W10G24    29.83R
Norwich        CLOUDY    39  30  70 W8        29.83S WCI  34
Oneonta        FLURRIES  36  28  75 W12G24    29.79S WCI  27
Penn Yan       CLOUDY    40  26  57 W20G29    29.87R WCI  30
Rome           LGT RAIN  40  33  76 W13       29.82R WCI  32
Sidney         RAIN      36  36 100 W5        29.85S WCI  32
Syracuse       CLOUDY    42  29  59 W20       29.82R
$$

PAZ038>040-043-044-047-048-072-022200
...Northeast Pennsylvania...

CITY           SKY/WX    TMP DP  RH WIND       PRES   REMARKS
Hazleton       CLOUDY    39  28  65 W6        29.92S WCI  35
Scranton       CLOUDY    44  30  57 W12       29.88R
$$
&&
KEY
WCI = Wind Chill Index
VSB = Visibility
HX  = Heat Index
$$




USA.gov is the U.S. government's official web portal to all federal, state and local government web resources and services.